Year,Month,Day,Hour,Minute,Value (Times are PST for temperature in C)
2009,09,25,00,00,10.30
2009,09,25,00,01,10.30
2009,09,25,00,02,10.30
2009,09,25,00,03,10.30
2009,09,25,00,04,10.30
2009,09,25,00,05,10.30
2009,09,25,00,06,10.30
2009,09,25,00,07,10.30
2009,09,25,00,08,10.30
2009,09,25,00,09,10.30
2009,09,25,00,10,10.20
2009,09,25,00,11,10.20
2009,09,25,00,12,10.20
2009,09,25,00,13,10.20
2009,09,25,00,14,10.20
2009,09,25,00,15,10.20
2009,09,25,00,16,10.20
2009,09,25,00,17,10.20
2009,09,25,00,18,10.10
2009,09,25,00,19,10.10
2009,09,25,00,20,10.10
2009,09,25,00,21,10.10
2009,09,25,00,22,10.10
2009,09,25,00,23,10.10
2009,09,25,00,24,10.20
2009,09,25,00,25,10.20
2009,09,25,00,26,10.20
2009,09,25,00,27,10.20
2009,09,25,00,28,10.20
2009,09,25,00,29,10.20
2009,09,25,00,30,10.20
2009,09,25,00,31,10.20
2009,09,25,00,32,10.20
2009,09,25,00,33,10.20
2009,09,25,00,34,10.20
2009,09,25,00,35,10.20
2009,09,25,00,36,10.20
2009,09,25,00,37,10.20
2009,09,25,00,38,10.20
2009,09,25,00,39,10.20
2009,09,25,00,40,10.20
2009,09,25,00,41,10.30
2009,09,25,00,42,10.30
2009,09,25,00,43,10.30
2009,09,25,00,44,10.30
2009,09,25,00,45,10.30
2009,09,25,00,46,10.30
2009,09,25,00,47,10.30
2009,09,25,00,48,10.20
2009,09,25,00,49,10.20
2009,09,25,00,50,10.20
2009,09,25,00,51,10.20
2009,09,25,00,52,10.20
2009,09,25,00,53,10.20
2009,09,25,00,54,10.20
2009,09,25,00,55,10.20
2009,09,25,00,56,10.20
2009,09,25,00,57,10.20
2009,09,25,00,58,10.20
2009,09,25,00,59,10.20
2009,09,25,01,00,10.20
2009,09,25,01,01,10.10
2009,09,25,01,02,10.10
2009,09,25,01,03,10.10
2009,09,25,01,04,10.10
2009,09,25,01,05,10.10
2009,09,25,01,06,10.00
2009,09,25,01,07,10.00
2009,09,25,01,08,10.00
2009,09,25,01,09,9.90
2009,09,25,01,10,9.90
2009,09,25,01,11,9.90
2009,09,25,01,12,9.90
2009,09,25,01,13,9.90
2009,09,25,01,14,9.90
2009,09,25,01,15,10.00
2009,09,25,01,16,10.00
2009,09,25,01,17,10.00
2009,09,25,01,18,10.00
2009,09,25,01,19,10.00
2009,09,25,01,20,10.00
2009,09,25,01,21,10.00
2009,09,25,01,22,10.00
2009,09,25,01,23,10.00
2009,09,25,01,24,10.10
2009,09,25,01,25,10.10
2009,09,25,01,26,10.10
2009,09,25,01,27,10.20
2009,09,25,01,28,10.20
2009,09,25,01,29,10.10
2009,09,25,01,30,10.20
2009,09,25,01,31,10.20
2009,09,25,01,32,10.20
2009,09,25,01,33,10.20
2009,09,25,01,34,10.20
2009,09,25,01,35,10.20
2009,09,25,01,36,10.20
2009,09,25,01,37,10.20
2009,09,25,01,38,10.20
2009,09,25,01,39,10.20
2009,09,25,01,40,10.10
2009,09,25,01,41,10.10
2009,09,25,01,42,10.10
2009,09,25,01,43,10.10
2009,09,25,01,44,10.10
2009,09,25,01,45,10.00
2009,09,25,01,46,10.00
2009,09,25,01,47,10.00
2009,09,25,01,48,10.00
2009,09,25,01,49,9.90
2009,09,25,01,50,9.90
2009,09,25,01,51,10.00
2009,09,25,01,52,10.00
2009,09,25,01,53,9.90
2009,09,25,01,54,9.90
2009,09,25,01,55,9.90
2009,09,25,01,56,10.00
2009,09,25,01,57,9.90
2009,09,25,01,58,10.00
2009,09,25,01,59,10.00
2009,09,25,02,00,10.00
2009,09,25,02,01,10.00
2009,09,25,02,02,10.10
2009,09,25,02,03,10.10
2009,09,25,02,04,10.10
2009,09,25,02,05,10.10
2009,09,25,02,06,10.10
2009,09,25,02,07,10.10
2009,09,25,02,08,10.10
2009,09,25,02,09,10.10
2009,09,25,02,10,10.10
2009,09,25,02,11,10.00
2009,09,25,02,12,10.00
2009,09,25,02,13,10.00
2009,09,25,02,14,9.90
2009,09,25,02,15,9.90
2009,09,25,02,16,9.90
2009,09,25,02,17,9.80
2009,09,25,02,18,9.80
2009,09,25,02,19,9.80
2009,09,25,02,20,9.80
2009,09,25,02,21,9.80
2009,09,25,02,22,9.80
2009,09,25,02,23,9.80
2009,09,25,02,24,9.80
2009,09,25,02,25,9.80
2009,09,25,02,26,9.80
2009,09,25,02,27,9.80
2009,09,25,02,28,9.80
2009,09,25,02,29,9.80
2009,09,25,02,30,9.80
2009,09,25,02,31,9.80
2009,09,25,02,32,9.90
2009,09,25,02,33,9.90
2009,09,25,02,34,9.90
2009,09,25,02,35,9.90
2009,09,25,02,36,9.80
2009,09,25,02,37,9.80
2009,09,25,02,38,9.80
2009,09,25,02,39,9.70
2009,09,25,02,40,9.70
2009,09,25,02,41,9.70
2009,09,25,02,42,9.70
2009,09,25,02,43,9.60
2009,09,25,02,44,9.60
2009,09,25,02,45,9.60
2009,09,25,02,46,9.50
2009,09,25,02,47,9.50
2009,09,25,02,48,9.50
2009,09,25,02,49,9.40
2009,09,25,02,50,9.40
2009,09,25,02,51,9.40
2009,09,25,02,52,9.30
2009,09,25,02,53,9.40
2009,09,25,02,54,9.40
2009,09,25,02,55,9.40
2009,09,25,02,56,9.40
2009,09,25,02,57,9.40
2009,09,25,02,58,9.40
2009,09,25,02,59,9.40
2009,09,25,03,00,9.40
2009,09,25,03,01,9.40
2009,09,25,03,02,9.30
2009,09,25,03,03,9.30
2009,09,25,03,04,9.30
2009,09,25,03,05,9.30
2009,09,25,03,06,9.30
2009,09,25,03,07,9.30
2009,09,25,03,08,9.30
2009,09,25,03,09,9.30
2009,09,25,03,10,9.30
2009,09,25,03,11,9.30
2009,09,25,03,12,9.30
2009,09,25,03,13,9.30
2009,09,25,03,14,9.30
2009,09,25,03,15,9.30
2009,09,25,03,16,9.30
2009,09,25,03,17,9.30
2009,09,25,03,18,9.30
2009,09,25,03,19,9.30
2009,09,25,03,20,9.30
2009,09,25,03,21,9.30
2009,09,25,03,22,9.30
2009,09,25,03,23,9.30
2009,09,25,03,24,9.30
2009,09,25,03,25,9.30
2009,09,25,03,26,9.30
2009,09,25,03,27,9.30
2009,09,25,03,28,9.30
2009,09,25,03,29,9.30
2009,09,25,03,30,9.30
2009,09,25,03,31,9.30
2009,09,25,03,32,9.30
2009,09,25,03,33,9.30
2009,09,25,03,34,9.30
2009,09,25,03,35,9.30
2009,09,25,03,36,9.30
2009,09,25,03,37,9.30
2009,09,25,03,38,9.30
2009,09,25,03,39,9.30
2009,09,25,03,40,9.30
2009,09,25,03,41,9.40
2009,09,25,03,42,9.40
2009,09,25,03,43,9.40
2009,09,25,03,44,9.40
2009,09,25,03,45,9.40
2009,09,25,03,46,9.30
2009,09,25,03,47,9.30
2009,09,25,03,48,9.30
2009,09,25,03,49,9.30
2009,09,25,03,50,9.30
2009,09,25,03,51,9.30
2009,09,25,03,52,9.30
2009,09,25,03,53,9.30
2009,09,25,03,54,9.30
2009,09,25,03,55,9.30
2009,09,25,03,56,9.30
2009,09,25,03,57,9.40
2009,09,25,03,58,9.40
2009,09,25,03,59,9.40
2009,09,25,04,00,9.50
2009,09,25,04,01,9.50
2009,09,25,04,02,9.50
2009,09,25,04,03,9.60
2009,09,25,04,04,9.60
2009,09,25,04,05,9.50
2009,09,25,04,06,9.50
2009,09,25,04,07,9.50
2009,09,25,04,08,9.60
2009,09,25,04,09,9.60
2009,09,25,04,10,9.60
2009,09,25,04,11,9.60
2009,09,25,04,12,9.60
2009,09,25,04,13,9.70
2009,09,25,04,14,9.70
2009,09,25,04,15,9.70
2009,09,25,04,16,9.70
2009,09,25,04,17,9.70
2009,09,25,04,18,9.70
2009,09,25,04,19,9.70
2009,09,25,04,20,9.70
2009,09,25,04,21,9.70
2009,09,25,04,22,9.60
2009,09,25,04,23,9.60
2009,09,25,04,24,9.60
2009,09,25,04,25,9.50
2009,09,25,04,26,9.50
2009,09,25,04,27,9.40
2009,09,25,04,28,9.40
2009,09,25,04,29,9.40
2009,09,25,04,30,9.30
2009,09,25,04,31,9.30
2009,09,25,04,32,9.30
2009,09,25,04,33,9.30
2009,09,25,04,34,9.30
2009,09,25,04,35,9.40
2009,09,25,04,36,9.40
2009,09,25,04,37,9.40
2009,09,25,04,38,9.40
2009,09,25,04,39,9.40
2009,09,25,04,40,9.40
2009,09,25,04,41,9.40
2009,09,25,04,42,9.40
2009,09,25,04,43,9.40
2009,09,25,04,44,9.40
2009,09,25,04,45,9.30
2009,09,25,04,46,9.30
2009,09,25,04,47,9.30
2009,09,25,04,48,9.30
2009,09,25,04,49,9.30
2009,09,25,04,50,9.20
2009,09,25,04,51,9.20
2009,09,25,04,52,9.20
2009,09,25,04,53,9.10
2009,09,25,04,54,9.10
2009,09,25,04,55,9.00
2009,09,25,04,56,9.00
2009,09,25,04,57,8.90
2009,09,25,04,58,8.90
2009,09,25,04,59,8.90
2009,09,25,05,00,8.90
2009,09,25,05,01,8.90
2009,09,25,05,02,8.80
2009,09,25,05,03,8.80
2009,09,25,05,04,8.80
2009,09,25,05,05,8.80
2009,09,25,05,06,8.80
2009,09,25,05,07,8.70
2009,09,25,05,08,8.70
2009,09,25,05,09,8.60
2009,09,25,05,10,8.60
2009,09,25,05,11,8.50
2009,09,25,05,12,8.40
2009,09,25,05,13,8.40
2009,09,25,05,14,8.40
2009,09,25,05,15,8.40
2009,09,25,05,16,8.30
2009,09,25,05,17,8.30
2009,09,25,05,18,8.30
2009,09,25,05,19,8.30
2009,09,25,05,20,8.30
2009,09,25,05,21,8.20
2009,09,25,05,22,8.20
2009,09,25,05,23,8.20
2009,09,25,05,24,8.20
2009,09,25,05,25,8.20
2009,09,25,05,26,8.20
2009,09,25,05,27,8.30
2009,09,25,05,28,8.30
2009,09,25,05,29,8.30
2009,09,25,05,30,8.40
2009,09,25,05,31,8.40
2009,09,25,05,32,8.40
2009,09,25,05,33,8.50
2009,09,25,05,34,8.50
2009,09,25,05,35,8.60
2009,09,25,05,36,8.60
2009,09,25,05,37,8.60
2009,09,25,05,38,8.60
2009,09,25,05,39,8.60
2009,09,25,05,40,8.60
2009,09,25,05,41,8.60
2009,09,25,05,42,8.60
2009,09,25,05,43,8.60
2009,09,25,05,44,8.60
2009,09,25,05,45,8.60
2009,09,25,05,46,8.60
2009,09,25,05,47,8.60
2009,09,25,05,48,8.60
2009,09,25,05,49,8.60
2009,09,25,05,50,8.60
2009,09,25,05,51,8.60
2009,09,25,05,52,8.60
2009,09,25,05,53,8.60
2009,09,25,05,54,8.50
2009,09,25,05,55,8.50
2009,09,25,05,56,8.50
2009,09,25,05,57,8.40
2009,09,25,05,58,8.40
2009,09,25,05,59,8.40
2009,09,25,06,00,8.30
2009,09,25,06,01,8.30
2009,09,25,06,02,8.30
2009,09,25,06,03,8.20
2009,09,25,06,04,8.20
2009,09,25,06,05,8.20
2009,09,25,06,06,8.20
2009,09,25,06,07,8.10
2009,09,25,06,08,8.10
2009,09,25,06,09,8.10
2009,09,25,06,10,8.10
2009,09,25,06,11,8.10
2009,09,25,06,12,8.00
2009,09,25,06,13,8.00
2009,09,25,06,14,8.00
2009,09,25,06,15,8.00
2009,09,25,06,16,8.00
2009,09,25,06,17,8.00
2009,09,25,06,18,8.00
2009,09,25,06,19,8.00
2009,09,25,06,20,8.00
2009,09,25,06,21,8.00
2009,09,25,06,22,7.90
2009,09,25,06,23,7.90
2009,09,25,06,24,7.90
2009,09,25,06,25,7.90
2009,09,25,06,26,7.90
2009,09,25,06,27,7.90
2009,09,25,06,28,7.90
2009,09,25,06,29,7.90
2009,09,25,06,30,7.90
2009,09,25,06,31,7.90
2009,09,25,06,32,7.90
2009,09,25,06,33,7.90
2009,09,25,06,34,7.90
2009,09,25,06,35,7.90
2009,09,25,06,36,7.90
2009,09,25,06,37,7.90
2009,09,25,06,38,7.90
2009,09,25,06,39,8.00
2009,09,25,06,40,8.00
2009,09,25,06,41,8.10
2009,09,25,06,42,8.20
2009,09,25,06,43,8.20
2009,09,25,06,44,8.20
2009,09,25,06,45,8.30
2009,09,25,06,46,8.30
2009,09,25,06,47,8.30
2009,09,25,06,48,8.30
2009,09,25,06,49,8.30
2009,09,25,06,50,8.30
2009,09,25,06,51,8.20
2009,09,25,06,52,8.20
2009,09,25,06,53,8.20
2009,09,25,06,54,8.10
2009,09,25,06,55,8.10
2009,09,25,06,56,8.10
2009,09,25,06,57,8.10
2009,09,25,06,58,8.20
2009,09,25,06,59,8.20
2009,09,25,07,00,8.20
2009,09,25,07,01,8.20
2009,09,25,07,02,8.20
2009,09,25,07,03,8.20
2009,09,25,07,04,8.20
2009,09,25,07,05,8.20
2009,09,25,07,06,8.20
2009,09,25,07,07,8.20
2009,09,25,07,08,8.20
2009,09,25,07,09,8.10
2009,09,25,07,10,8.10
2009,09,25,07,11,8.10
2009,09,25,07,12,8.10
2009,09,25,07,13,8.10
2009,09,25,07,14,8.10
2009,09,25,07,15,8.10
2009,09,25,07,16,8.10
2009,09,25,07,17,8.20
2009,09,25,07,18,8.20
2009,09,25,07,19,8.20
2009,09,25,07,20,8.30
2009,09,25,07,21,8.30
2009,09,25,07,22,8.30
2009,09,25,07,23,8.30
2009,09,25,07,24,8.40
2009,09,25,07,25,8.50
2009,09,25,07,26,8.50
2009,09,25,07,27,8.60
2009,09,25,07,28,8.60
2009,09,25,07,29,8.70
2009,09,25,07,30,8.80
2009,09,25,07,31,8.80
2009,09,25,07,32,8.90
2009,09,25,07,33,8.90
2009,09,25,07,34,8.90
2009,09,25,07,35,8.90
2009,09,25,07,36,9.00
2009,09,25,07,37,9.00
2009,09,25,07,38,9.00
2009,09,25,07,39,9.00
2009,09,25,07,40,9.10
2009,09,25,07,41,9.10
2009,09,25,07,42,9.10
2009,09,25,07,43,9.10
2009,09,25,07,44,9.10
2009,09,25,07,45,9.20
2009,09,25,07,46,9.20
2009,09,25,07,47,9.20
2009,09,25,07,48,9.20
2009,09,25,07,49,9.20
2009,09,25,07,50,9.30
2009,09,25,07,51,9.30
2009,09,25,07,52,9.30
2009,09,25,07,53,9.30
2009,09,25,07,54,9.40
2009,09,25,07,55,9.40
2009,09,25,07,56,9.50
2009,09,25,07,57,9.50
2009,09,25,07,58,9.60
2009,09,25,07,59,9.60
2009,09,25,08,00,9.70
2009,09,25,08,01,9.70
2009,09,25,08,02,9.80
2009,09,25,08,03,9.80
2009,09,25,08,04,9.80
2009,09,25,08,05,9.90
2009,09,25,08,06,9.90
2009,09,25,08,07,9.90
2009,09,25,08,08,10.00
2009,09,25,08,09,10.00
2009,09,25,08,10,10.10
2009,09,25,08,11,10.10
2009,09,25,08,12,10.20
2009,09,25,08,13,10.30
2009,09,25,08,14,10.30
2009,09,25,08,15,10.30
2009,09,25,08,16,10.30
2009,09,25,08,17,10.30
2009,09,25,08,18,10.40
2009,09,25,08,19,10.40
2009,09,25,08,20,10.50
2009,09,25,08,21,10.50
2009,09,25,08,22,10.60
2009,09,25,08,23,10.60
2009,09,25,08,24,10.60
2009,09,25,08,25,10.70
2009,09,25,08,26,10.80
2009,09,25,08,27,10.80
2009,09,25,08,28,10.90
2009,09,25,08,29,11.00
2009,09,25,08,30,11.10
2009,09,25,08,31,11.20
2009,09,25,08,32,11.30
2009,09,25,08,33,11.40
2009,09,25,08,34,11.50
2009,09,25,08,35,11.50
2009,09,25,08,36,11.60
2009,09,25,08,37,11.70
2009,09,25,08,38,11.70
2009,09,25,08,39,11.80
2009,09,25,08,40,11.80
2009,09,25,08,41,11.90
2009,09,25,08,42,11.90
2009,09,25,08,43,11.90
2009,09,25,08,44,12.00
2009,09,25,08,45,12.00
2009,09,25,08,46,12.00
2009,09,25,08,47,11.90
2009,09,25,08,48,11.90
2009,09,25,08,49,11.80
2009,09,25,08,50,11.80
2009,09,25,08,51,11.70
2009,09,25,08,52,11.60
2009,09,25,08,53,11.60
2009,09,25,08,54,11.60
2009,09,25,08,55,11.60
2009,09,25,08,56,11.60
2009,09,25,08,57,11.60
2009,09,25,08,58,11.60
2009,09,25,08,59,11.70
2009,09,25,09,00,11.70
2009,09,25,09,01,11.80
2009,09,25,09,02,11.80
2009,09,25,09,03,11.80
2009,09,25,09,04,11.80
2009,09,25,09,05,11.80
2009,09,25,09,06,11.90
2009,09,25,09,07,12.00
2009,09,25,09,08,12.00
2009,09,25,09,09,12.10
2009,09,25,09,10,12.10
2009,09,25,09,11,12.20
2009,09,25,09,12,12.30
2009,09,25,09,13,12.30
2009,09,25,09,14,12.40
2009,09,25,09,15,12.50
2009,09,25,09,16,12.60
2009,09,25,09,17,12.70
2009,09,25,09,18,12.80
2009,09,25,09,19,12.90
2009,09,25,09,20,12.90
2009,09,25,09,21,13.00
2009,09,25,09,22,13.00
2009,09,25,09,23,13.10
2009,09,25,09,24,13.10
2009,09,25,09,25,13.10
2009,09,25,09,26,13.20
2009,09,25,09,27,13.20
2009,09,25,09,28,13.30
2009,09,25,09,29,13.30
2009,09,25,09,30,13.40
2009,09,25,09,31,13.40
2009,09,25,09,32,13.40
2009,09,25,09,33,13.40
2009,09,25,09,34,13.40
2009,09,25,09,35,13.40
2009,09,25,09,36,13.40
2009,09,25,09,37,13.40
2009,09,25,09,38,13.30
2009,09,25,09,39,13.30
2009,09,25,09,40,13.20
2009,09,25,09,41,13.10
2009,09,25,09,42,13.00
2009,09,25,09,43,13.00
2009,09,25,09,44,12.90
2009,09,25,09,45,12.90
2009,09,25,09,46,12.80
2009,09,25,09,47,12.80
2009,09,25,09,48,12.80
2009,09,25,09,49,12.90
2009,09,25,09,50,12.90
2009,09,25,09,51,12.90
2009,09,25,09,52,12.90
2009,09,25,09,53,12.90
2009,09,25,09,54,12.90
2009,09,25,09,55,13.00
2009,09,25,09,56,13.10
2009,09,25,09,57,13.10
2009,09,25,09,58,13.10
2009,09,25,09,59,13.20
2009,09,25,10,00,13.20
2009,09,25,10,01,13.30
2009,09,25,10,02,13.30
2009,09,25,10,03,13.40
2009,09,25,10,04,13.40
2009,09,25,10,05,13.40
2009,09,25,10,06,13.40
2009,09,25,10,07,13.50
2009,09,25,10,08,13.50
2009,09,25,10,09,13.50
2009,09,25,10,10,13.50
2009,09,25,10,11,13.60
2009,09,25,10,12,13.60
2009,09,25,10,13,13.60
2009,09,25,10,14,13.70
2009,09,25,10,15,13.70
2009,09,25,10,16,13.80
2009,09,25,10,17,13.80
2009,09,25,10,18,13.80
2009,09,25,10,19,13.90
2009,09,25,10,20,13.90
2009,09,25,10,21,14.00
2009,09,25,10,22,14.10
2009,09,25,10,23,14.00
2009,09,25,10,24,14.10
2009,09,25,10,25,14.10
2009,09,25,10,26,14.10
2009,09,25,10,27,14.10
2009,09,25,10,28,14.10
2009,09,25,10,29,14.20
2009,09,25,10,30,14.20
2009,09,25,10,31,14.20
2009,09,25,10,32,14.20
2009,09,25,10,33,14.20
2009,09,25,10,34,14.20
2009,09,25,10,35,14.20
2009,09,25,10,36,14.10
2009,09,25,10,37,14.10
2009,09,25,10,38,14.10
2009,09,25,10,39,14.10
2009,09,25,10,40,14.00
2009,09,25,10,41,14.00
2009,09,25,10,42,14.00
2009,09,25,10,43,14.00
2009,09,25,10,44,13.90
2009,09,25,10,45,13.80
2009,09,25,10,46,13.70
2009,09,25,10,47,13.70
2009,09,25,10,48,13.60
2009,09,25,10,49,13.60
2009,09,25,10,50,13.60
2009,09,25,10,51,13.70
2009,09,25,10,52,13.70
2009,09,25,10,53,13.80
2009,09,25,10,54,13.90
2009,09,25,10,55,13.90
2009,09,25,10,56,14.00
2009,09,25,10,57,14.00
2009,09,25,10,58,14.00
2009,09,25,10,59,13.90
2009,09,25,11,00,14.00
2009,09,25,11,01,14.00
2009,09,25,11,02,14.10
2009,09,25,11,03,14.10
2009,09,25,11,04,14.20
2009,09,25,11,05,14.30
2009,09,25,11,06,14.30
2009,09,25,11,07,14.20
2009,09,25,11,08,14.20
2009,09,25,11,09,14.30
2009,09,25,11,10,14.40
2009,09,25,11,11,14.40
2009,09,25,11,12,14.50
2009,09,25,11,13,14.50
2009,09,25,11,14,14.60
2009,09,25,11,15,14.60
2009,09,25,11,16,14.50
2009,09,25,11,17,14.40
2009,09,25,11,18,14.30
2009,09,25,11,19,14.20
2009,09,25,11,20,14.10
2009,09,25,11,21,14.00
2009,09,25,11,22,13.90
2009,09,25,11,23,13.80
2009,09,25,11,24,13.80
2009,09,25,11,25,13.90
2009,09,25,11,26,14.00
2009,09,25,11,27,14.10
2009,09,25,11,28,14.10
2009,09,25,11,29,14.20
2009,09,25,11,30,14.30
2009,09,25,11,31,14.30
2009,09,25,11,32,14.30
2009,09,25,11,33,14.20
2009,09,25,11,34,14.00
2009,09,25,11,35,13.90
2009,09,25,11,36,13.70
2009,09,25,11,37,13.60
2009,09,25,11,38,13.60
2009,09,25,11,39,13.60
2009,09,25,11,40,13.60
2009,09,25,11,41,13.60
2009,09,25,11,42,13.60
2009,09,25,11,43,13.70
2009,09,25,11,44,13.80
2009,09,25,11,45,13.90
2009,09,25,11,46,13.90
2009,09,25,11,47,13.90
2009,09,25,11,48,13.80
2009,09,25,11,49,13.60
2009,09,25,11,50,13.50
2009,09,25,11,51,13.40
2009,09,25,11,52,13.40
2009,09,25,11,53,13.30
2009,09,25,11,54,13.30
2009,09,25,11,55,13.30
2009,09,25,11,56,13.40
2009,09,25,11,57,13.60
2009,09,25,11,58,13.70
2009,09,25,11,59,13.80
2009,09,25,12,00,14.00
2009,09,25,12,01,14.10
2009,09,25,12,02,14.20
2009,09,25,12,03,14.30
2009,09,25,12,04,14.40
2009,09,25,12,05,14.40
2009,09,25,12,06,14.40
2009,09,25,12,07,14.40
2009,09,25,12,08,14.40
2009,09,25,12,09,14.40
2009,09,25,12,10,14.40
2009,09,25,12,11,14.40
2009,09,25,12,12,14.30
2009,09,25,12,13,14.30
2009,09,25,12,14,14.30
2009,09,25,12,15,14.30
2009,09,25,12,16,14.30
2009,09,25,12,17,14.30
2009,09,25,12,18,14.20
2009,09,25,12,19,14.30
2009,09,25,12,20,14.30
2009,09,25,12,21,14.40
2009,09,25,12,22,14.50
2009,09,25,12,23,14.50
2009,09,25,12,24,14.50
2009,09,25,12,25,14.40
2009,09,25,12,26,14.40
2009,09,25,12,27,14.40
2009,09,25,12,28,14.30
2009,09,25,12,29,14.30
2009,09,25,12,30,14.20
2009,09,25,12,31,14.20
2009,09,25,12,32,14.20
2009,09,25,12,33,14.20
2009,09,25,12,34,14.20
2009,09,25,12,35,14.10
2009,09,25,12,36,14.10
2009,09,25,12,37,14.20
2009,09,25,12,38,14.10
2009,09,25,12,39,14.10
2009,09,25,12,40,14.20
2009,09,25,12,41,14.20
2009,09,25,12,42,14.20
2009,09,25,12,43,14.10
2009,09,25,12,44,14.10
2009,09,25,12,45,14.10
2009,09,25,12,46,14.20
2009,09,25,12,47,14.20
2009,09,25,12,48,14.20
2009,09,25,12,49,14.40
2009,09,25,12,50,14.50
2009,09,25,12,51,14.60
2009,09,25,12,52,14.80
2009,09,25,12,53,14.90
2009,09,25,12,54,15.00
2009,09,25,12,55,15.00
2009,09,25,12,56,15.00
2009,09,25,12,57,15.00
2009,09,25,12,58,15.00
2009,09,25,12,59,15.00
2009,09,25,13,00,15.00
2009,09,25,13,01,15.10
2009,09,25,13,02,15.10
2009,09,25,13,03,15.00
2009,09,25,13,04,15.10
2009,09,25,13,05,15.20
2009,09,25,13,06,15.30
2009,09,25,13,07,15.30
2009,09,25,13,08,15.20
2009,09,25,13,09,15.10
2009,09,25,13,10,15.10
2009,09,25,13,11,15.30
2009,09,25,13,12,15.30
2009,09,25,13,13,15.30
2009,09,25,13,14,15.20
2009,09,25,13,15,15.20
2009,09,25,13,16,15.20
2009,09,25,13,17,15.20
2009,09,25,13,18,15.20
2009,09,25,13,19,15.20
2009,09,25,13,20,15.10
2009,09,25,13,21,15.00
2009,09,25,13,22,15.00
2009,09,25,13,23,15.00
2009,09,25,13,24,14.80
2009,09,25,13,25,14.50
2009,09,25,13,26,14.40
2009,09,25,13,27,14.20
2009,09,25,13,28,14.00
2009,09,25,13,29,13.90
2009,09,25,13,30,13.90
2009,09,25,13,31,13.80
2009,09,25,13,32,13.90
2009,09,25,13,33,14.00
2009,09,25,13,34,14.00
2009,09,25,13,35,14.00
2009,09,25,13,36,14.10
2009,09,25,13,37,14.10
2009,09,25,13,38,14.20
2009,09,25,13,39,14.20
2009,09,25,13,40,14.20
2009,09,25,13,41,14.30
2009,09,25,13,42,14.30
2009,09,25,13,43,14.30
2009,09,25,13,44,14.30
2009,09,25,13,45,14.20
2009,09,25,13,46,14.20
2009,09,25,13,47,14.10
2009,09,25,13,48,14.20
2009,09,25,13,49,14.20
2009,09,25,13,50,14.20
2009,09,25,13,51,14.20
2009,09,25,13,52,14.10
2009,09,25,13,53,14.10
2009,09,25,13,54,14.10
2009,09,25,13,55,14.10
2009,09,25,13,56,14.10
2009,09,25,13,57,14.10
2009,09,25,13,58,14.00
2009,09,25,13,59,14.10
2009,09,25,14,00,14.20
2009,09,25,14,01,14.20
2009,09,25,14,02,14.20
2009,09,25,14,03,14.30
2009,09,25,14,04,14.40
2009,09,25,14,05,14.40
2009,09,25,14,06,14.40
2009,09,25,14,07,14.40
2009,09,25,14,08,14.50
2009,09,25,14,09,14.60
2009,09,25,14,10,14.60
2009,09,25,14,11,14.70
2009,09,25,14,12,14.60
2009,09,25,14,13,14.60
2009,09,25,14,14,14.70
2009,09,25,14,15,14.70
2009,09,25,14,16,14.70
2009,09,25,14,17,14.70
2009,09,25,14,18,14.80
2009,09,25,14,19,14.80
2009,09,25,14,20,14.90
2009,09,25,14,21,14.90
2009,09,25,14,22,14.80
2009,09,25,14,23,14.80
2009,09,25,14,24,14.70
2009,09,25,14,25,14.60
2009,09,25,14,26,14.50
2009,09,25,14,27,14.40
2009,09,25,14,28,14.50
2009,09,25,14,29,14.50
2009,09,25,14,30,14.50
2009,09,25,14,31,14.40
2009,09,25,14,32,14.30
2009,09,25,14,33,14.30
2009,09,25,14,34,14.20
2009,09,25,14,35,14.20
2009,09,25,14,36,14.10
2009,09,25,14,37,14.10
2009,09,25,14,38,14.20
2009,09,25,14,39,14.20
2009,09,25,14,40,14.30
2009,09,25,14,41,14.50
2009,09,25,14,42,14.60
2009,09,25,14,43,14.60
2009,09,25,14,44,14.60
2009,09,25,14,45,14.60
2009,09,25,14,46,14.60
2009,09,25,14,47,14.60
2009,09,25,14,48,14.60
2009,09,25,14,49,14.60
2009,09,25,14,50,14.70
2009,09,25,14,51,14.70
2009,09,25,14,52,14.70
2009,09,25,14,53,14.70
2009,09,25,14,54,14.60
2009,09,25,14,55,14.60
2009,09,25,14,56,14.50
2009,09,25,14,57,14.40
2009,09,25,14,58,14.50
2009,09,25,14,59,14.50
2009,09,25,15,00,14.50
2009,09,25,15,01,14.60
2009,09,25,15,02,14.60
2009,09,25,15,03,14.60
2009,09,25,15,04,14.60
2009,09,25,15,05,14.60
2009,09,25,15,06,14.60
2009,09,25,15,07,14.60
2009,09,25,15,08,14.70
2009,09,25,15,09,14.70
2009,09,25,15,10,14.70
2009,09,25,15,11,14.60
2009,09,25,15,12,14.60
2009,09,25,15,13,14.50
2009,09,25,15,14,14.50
2009,09,25,15,15,14.60
2009,09,25,15,16,14.60
2009,09,25,15,17,14.70
2009,09,25,15,18,14.80
2009,09,25,15,19,14.80
2009,09,25,15,20,14.70
2009,09,25,15,21,14.60
2009,09,25,15,22,14.60
2009,09,25,15,23,14.60
2009,09,25,15,24,14.60
2009,09,25,15,25,14.70
2009,09,25,15,26,14.80
2009,09,25,15,27,14.80
2009,09,25,15,28,14.80
2009,09,25,15,29,14.80
2009,09,25,15,30,14.70
2009,09,25,15,31,14.60
2009,09,25,15,32,14.60
2009,09,25,15,33,14.60
2009,09,25,15,34,14.60
2009,09,25,15,35,14.60
2009,09,25,15,36,14.60
2009,09,25,15,37,14.60
2009,09,25,15,38,14.60
2009,09,25,15,39,14.50
2009,09,25,15,40,14.50
2009,09,25,15,41,14.40
2009,09,25,15,42,14.30
2009,09,25,15,43,14.30
2009,09,25,15,44,14.30
2009,09,25,15,45,14.30
2009,09,25,15,46,14.20
2009,09,25,15,47,14.10
2009,09,25,15,48,14.10
2009,09,25,15,49,14.10
2009,09,25,15,50,14.10
2009,09,25,15,51,14.10
2009,09,25,15,52,14.00
2009,09,25,15,53,13.90
2009,09,25,15,54,13.80
2009,09,25,15,55,13.80
2009,09,25,15,56,13.80
2009,09,25,15,57,13.80
2009,09,25,15,58,13.80
2009,09,25,15,59,13.70
2009,09,25,16,00,13.60
2009,09,25,16,01,13.50
2009,09,25,16,02,13.50
2009,09,25,16,03,13.60
2009,09,25,16,04,13.50
2009,09,25,16,05,13.50
2009,09,25,16,06,13.40
2009,09,25,16,07,13.30
2009,09,25,16,08,13.30
2009,09,25,16,09,13.30
2009,09,25,16,10,13.40
2009,09,25,16,11,13.40
2009,09,25,16,12,13.40
2009,09,25,16,13,13.40
2009,09,25,16,14,13.40
2009,09,25,16,15,13.50
2009,09,25,16,16,13.50
2009,09,25,16,17,13.40
2009,09,25,16,18,13.40
2009,09,25,16,19,13.40
2009,09,25,16,20,13.50
2009,09,25,16,21,13.60
2009,09,25,16,22,13.70
2009,09,25,16,23,13.70
2009,09,25,16,24,13.80
2009,09,25,16,25,14.00
2009,09,25,16,26,14.10
2009,09,25,16,27,14.10
2009,09,25,16,28,14.10
2009,09,25,16,29,14.10
2009,09,25,16,30,14.20
2009,09,25,16,31,14.30
2009,09,25,16,32,14.30
2009,09,25,16,33,14.40
2009,09,25,16,34,14.50
2009,09,25,16,35,14.50
2009,09,25,16,36,14.60
2009,09,25,16,37,14.70
2009,09,25,16,38,14.70
2009,09,25,16,39,14.80
2009,09,25,16,40,14.80
2009,09,25,16,41,14.90
2009,09,25,16,42,14.90
2009,09,25,16,43,15.00
2009,09,25,16,44,15.00
2009,09,25,16,45,15.00
2009,09,25,16,46,14.90
2009,09,25,16,47,14.80
2009,09,25,16,48,14.80
2009,09,25,16,49,14.80
2009,09,25,16,50,14.80
2009,09,25,16,51,14.90
2009,09,25,16,52,15.00
2009,09,25,16,53,15.00
2009,09,25,16,54,15.00
2009,09,25,16,55,15.00
2009,09,25,16,56,15.00
2009,09,25,16,57,15.00
2009,09,25,16,58,15.00
2009,09,25,16,59,15.00
2009,09,25,17,00,15.00
2009,09,25,17,01,15.00
2009,09,25,17,02,14.90
2009,09,25,17,03,14.70
2009,09,25,17,04,14.50
2009,09,25,17,05,14.30
2009,09,25,17,06,14.20
2009,09,25,17,07,14.10
2009,09,25,17,08,14.00
2009,09,25,17,09,13.90
2009,09,25,17,10,13.80
2009,09,25,17,11,13.70
2009,09,25,17,12,13.50
2009,09,25,17,13,13.50
2009,09,25,17,14,13.40
2009,09,25,17,15,13.40
2009,09,25,17,16,13.40
2009,09,25,17,17,13.40
2009,09,25,17,18,13.40
2009,09,25,17,19,13.50
2009,09,25,17,20,13.50
2009,09,25,17,21,13.50
2009,09,25,17,22,13.40
2009,09,25,17,23,13.50
2009,09,25,17,24,13.50
2009,09,25,17,25,13.50
2009,09,25,17,26,13.50
2009,09,25,17,27,13.60
2009,09,25,17,28,13.50
2009,09,25,17,29,13.40
2009,09,25,17,30,13.40
2009,09,25,17,31,13.40
2009,09,25,17,32,13.40
2009,09,25,17,33,13.50
2009,09,25,17,34,13.60
2009,09,25,17,35,13.70